User: anonymous   Login
Location: Treviso
(45.6669°N, 12.2430°E)
Time: 05:19:22
(UTC+02:00)
Language:

NOAA 15 - Orbit

View from above orbital plane
View from above orbital plane
View from above satellite
View from above satellite

Ground track
Ground track

The orbit data is extracted from the following two-line orbital elements,

1 25338U 98030A   19141.48861045  .00000059  00000-0  43596-4 0  9998
2 25338  98.7486 162.8030 0009728 330.8018  29.2617 14.25908766 93236
Epoch (UTC): 21 May 2019 11:43:35
Eccentricity: 0.0009728
inclination: 98.7486°
perigee height: 798 km
apogee height: 812 km
right ascension of ascending node: 162.8030°
argument of perigee: 330.8018°
revolutions per day: 14.25908766
mean anomaly at epoch: 29.2617°
orbit number at epoch: 9323

The dashed part of the orbit path shows where the satellite is in the earth's shadow,  

DLR